User: anonymous   Login
Location: Krakow
(50.0212°N, 19.9423°E)
Time: 20:17:20
(UTC+02:00)
Language:

LilacSat-2 - Orbit

View from above orbital plane
View from above orbital plane
View from above satellite
View from above satellite

Ground track
Ground track

The orbit data is extracted from the following two-line orbital elements,

1 40908U 15049K   24113.18619103  .00017669  00000-0  70769-3 0  9991
2 40908  97.5263 121.5367 0012789 177.8301 182.2994 15.25033934474953
Epoch (UTC): 22 April 2024 04:28:06
Eccentricity: 0.0012789
inclination: 97.5263°
perigee height: 482 km
apogee height: 499 km
right ascension of ascending node: 121.5367°
argument of perigee: 177.8301°
revolutions per day: 15.25033934
mean anomaly at epoch: 182.2994°
orbit number at epoch: 47495

The dashed part of the orbit path shows where the satellite is in the earth's shadow,  

DLR